Regional Weather Roundup
Issued by NWS Kansas City/Pleasant Hill, MO

Home | Current Version | Previous Version | Text Only | Print | Product List | Glossary On
Versions: 1 2 3 4 5 6 7 8 9 10 11 12 13 14 15 16 17 18 19 20 21 22 23 24 25 26 27 28 29 30 31 32 33 34 35 36 37 38 39 40 41 42 43 44 45 46 47 48 49 50
000
ASUS43 KEAX 100810
RWREAX

WEATHER ROUNDUP FOR EASTERN KANSAS AND NORTHWEST MISSOURI
NATIONAL WEATHER SERVICE KANSAS CITY/PLEASANT HILL MO
200 AM CST WED FEB 10 2016

KSZ040-057-103>105-MOZ028-029-037-043-100900-
...KANSAS CITY METROPOLITAN AREA...

CITY           SKY/WX    TMP DP  RH WIND       PRES   REMARKS
K.C. INTL      CLOUDY    19  12  74 SW5       30.21F WCI  12
K.C. DOWNTOWN  MOCLDY    22  11  62 SW5       30.23F WCI  16
LEES SUMMIT    PTCLDY    20   9  62 W3        30.22F
OLATHE - IXD   CLOUDY    21  12  68 SW3       30.23F
OLATHE - OJC   MOCLDY    19  10  68 CALM      30.22F
LAWRENCE       CLOUDY    20  15  81 CALM      30.24F

$$

MOZ001>008-011>017-020>025-030>033-038>040-044>046-053-054-100900-
...NORTHERN AND CENTRAL MISSOURI...

CITY           SKY/WX    TMP DP  RH WIND       PRES   REMARKS
ST. JOSEPH     CLOUDY    18  13  80 S3        30.22F
MOSBY          SUNNY     21  12  68 CALM      30.23F
WARRENSBURG    CLEAR     23  12  63 W7        30.22F WCI  15
WHITEMAN AFB   CLEAR     19  10  67 NW6       30.21F WCI  11
CLINTON          N/A     23  12  63 NW6       30.23F WCI  16
SEDALIA        CLEAR     20  10  65 NW6       30.22F WCI  12
WARSAW         NOT AVBL
CHILLICOTHE      N/A     20  12  71 NW3       30.21F
KIRKSVILLE     PTCLDY    14   5  67 NW6       30.16F WCI   5

$$

MOZ041-047>049-056>058-063>065-088>090-097-100900-
...EASTERN AND SOUTHERN MISSOURI...

CITY           SKY/WX    TMP DP  RH WIND       PRES   REMARKS
ST. LOUIS INTL FLURRIES  19   6  57 NW16G26   30.15R WCI   4
SPIRIT OF STL  PTCLDY    17   6  62 NW15      30.17R WCI   2
COLUMBIA       PTCLDY    17   8  67 NW12      30.19R WCI   4
JEFFERSON CITY PTCLDY    18   7  62 NW6       30.22S WCI  10
ROLLA          PTCLDY    16   6  65 W8        30.15S WCI   5
OSAGE BEACH    CLEAR     19   5  53 NW5       30.21S WCI  13
SPRINGFIELD    CLEAR     21   7  54 NW10      30.20S WCI  10
BRANSON        CLEAR     23   7  50 NW9       30.21F WCI  13
JOPLIN         CLEAR     19   8  62 W5        30.27S WCI  12
WEST PLAINS    CLEAR     21   3  45 NW13G23   30.16S WCI   9

$$

IAZ060-094-KSZ022-034>040-054-083-096-NEZ052-066-093-100900-
...KANSAS...SOUTHEAST NEBRASKA AND IOWA...

CITY           SKY/WX    TMP DP  RH WIND       PRES   REMARKS
TOPEKA         CLOUDY    23  11  60 CALM      30.23F
MANHATTAN      CLOUDY    21  16  81 SW3       30.21F
EMPORIA        CLEAR     17  11  77 S6        30.22F WCI   9
CHANUTE        CLEAR     19   9  65 CALM      30.26F
WICHITA        CLOUDY    28  15  58 S9        30.24S WCI  19
OMAHA          CLOUDY    20  15  81 S7        30.16F WCI  11
LINCOLN        CLOUDY    24  17  74 S6        30.15F WCI  17
FALLS CITY     CLOUDY    21  13  71 S5        30.20F WCI  15
LAMONI         CLOUDY    20  12  71 NW7       30.14F WCI  11
DES MOINES     MOCLDY    15   7  70 N5        30.16S WCI   8

$$




USA.gov is the U.S. government's official web portal to all federal, state and local government web resources and services.